Showing default

TBA - TO BE ASSIGNED, 64497

Orbit data source: Space-Track

TBA - TO BE ASSIGNED named objects are likely recently launched satellites that are being tracked but not necessarily identified.

Not visible in the next 10 days
Identifier
64497, 2025-133AB
Orbit
LEO
Last TLE update
11 hours ago
Origin
Manufacturer
SpaceX/Seattle
Mission
Operational spacecraft
Bus & Motor
STARLINK V2MO, Unknown motor
Mass
575 kg wet, ~530 kg dry
Launch date (UTC)
2025-06-23 (1 week ago)
Launch vehicle
FALCON 9
Launch site
Air Force Eastern Test Range (AFETR)
Object type
Payload
Rocket body
Debris
Shape & HBR
Unknown
Radar Cross Section
RCS unknown

Expand to show TLE details & history

TLE from 11 hours ago
0 STARLINK-34363
1 64497U 25133AB  25181.91668981 -.01257726  00000-0 -49031-2 0  9990
2 64497  53.1553 219.1533 0000802  83.0660 147.0356 15.88803303  2457
Epoch: 2025-06-30T22:00Z
TLE epoch observation values (Epoch: 2025-06-30T22:00:01.999Z)
Latitude
-38.09038°
Longitude
-174.34088°
Altitude
318.461 km
Speed
7.717 km/s
True Right ascension
04h 59m 32s
True Declination
-37° 54' 45"
Sunlit
Object was in daylight at epoch
Visualization orbit readout
Latitude
32.4009°
Longitude
-4.2392°
Altitude
311.014 km
Speed
7.726 km/s
Apparent Right ascension
13h 01m 40s
Apparent Declination
-4° 48' 58"
Sunlit
Object is in full shadow
Visualization observer readout
Local Sidereal Time
20:55:51
Azimuth
285.404° WNW
Elevation
-24.779°
Doppler factor
1
Orbital elements
Apogee altitude
306.436 km
Perigee altitude
305.364 km
Semi-major axis
6,684.037 km
Eccentricity
0.00008
Inclination
53.1553°
RAAN
219.1533°
Arg. of periapsis
83.066°
True anomaly
Unknown
Mean anomaly
147.0356°
Eccentric anomaly
Unknown
Mean motion
3.97178 °/min
Orbital period
90.64 mins
BSTAR
-0.0049031
Loading maneuver chart data...
Loading SW <> Apogee altitude chart data...

TBA - TO BE ASSIGNED Visibility

Observer location: undefined°, undefined°

TBA - TO BE ASSIGNED is likely not visible in the next few days
Span
Click to sort rows by Start time (UTC) header in descending order
Start Az.
Max El. time (UTC)
Max El. Az.
Max El.
End time (UTC)
End Az.
|